User: anonymous   Login
Location: Unspecified
(0.0000°N, 0.0000°E)
Time: 20:40:55
(UTC+00:00)
Language:

COSMOS 2401 - Orbit

View from above orbital plane
View from above orbital plane
View from above satellite
View from above satellite

Ground track
Ground track

The orbit data is extracted from the following two-line orbital elements,

1 27869U 03037B   17172.72993161 -.00000000 +00000-0 -72970-4 0  9992
2 27869 082.4703 225.6858 0023490 041.0543 319.2307 12.45451744629299
Epoch (UTC): 21 June 2017 17:31:06
Eccentricity: 0.0023490
inclination: 82.4703°
perigee height: 1465 km
apogee height: 1502 km
right ascension of ascending node: 225.6858°
argument of perigee: 41.0543°
revolutions per day: 12.45451744
mean anomaly at epoch: 319.2307°
orbit number at epoch: 62929

The dashed part of the orbit path shows where the satellite is in the earth's shadow,  

DLR